Powrót do katalogu

LIJIAN-1 Y8 STAGE 4

AktywnySSO
NORAD 66053·DEBRIS·🇨🇳 China
Ta nazwa satelity nie została jeszcze potwierdzona przez oficjalne źródła.

Wystrzelony Oct 19, 2025 z Jiuquan Satellite Launch Center

Loading…

Następne Przeloty (najbliższe 24 godziny)

TLE

ŚwieżeSource: Space-Track

Epoka: Sep 14, 2026, 14:53 UTC

1 66053U 25234A   26257.62051650  .00052061  00000-0  97208-3 0  9996
2 66053  97.4185 330.9542 0008829 186.3701 173.7439 15.48567429 50689

Śledź LIJIAN-1 Y8 STAGE 4 w czasie rzeczywistym z AllMySat

Download on the App Store